TimeGST,TemperatureF,Dew PointF,Humidity,Sea Level PressureIn,VisibilityMPH,Wind Direction,Wind SpeedMPH,Gust SpeedMPH,PrecipitationIn,Events,Conditions,WindDirDegrees,DateUTC
12:00 AM,95.0,71.6,47,29.62,-9999.0,East,6.9,-,N/A,,Clear,100,2013-08-31 20:00:00
1:00 AM,93.2,69.8,46,29.59,-9999.0,ESE,5.8,-,N/A,,Clear,110,2013-08-31 21:00:00
2:00 AM,93.2,68.0,44,29.59,-9999.0,ESE,4.6,-,N/A,,Clear,110,2013-08-31 22:00:00
3:00 AM,93.2,68.0,44,29.56,-9999.0,East,5.8,-,N/A,,Clear,100,2013-08-31 23:00:00
4:00 AM,92,67,35,29.59,6,East,2.3,,,,,100,2013-09-01 00:00:00
4:00 AM,91.4,68.0,46,29.59,-9999.0,East,2.3,-,N/A,,Clear,100,2013-09-01 00:00:00
5:00 AM,91.4,66.2,43,29.59,-9999.0,ESE,5.8,-,N/A,,Clear,110,2013-09-01 01:00:00
6:00 AM,89.6,68.0,49,29.59,5.6,ESE,6.9,-,N/A,,Unknown,120,2013-09-01 02:00:00
7:00 AM,92,65,31,29.63,4,ESE,8.1,,,,Widespread Dust,120,2013-09-01 03:00:00
7:00 AM,91.4,64.4,41,29.62,4.3,ESE,8.1,-,N/A,,Unknown,120,2013-09-01 03:00:00
8:00 AM,95.0,62.6,34,29.65,5.0,SSE,12.7,-,N/A,,Unknown,150,2013-09-01 04:00:00
9:00 AM,98.6,62.6,30,29.65,5.0,SSE,12.7,-,N/A,,Unknown,160,2013-09-01 05:00:00
10:00 AM,102.2,62.6,27,29.68,5.0,SSE,11.5,-,N/A,,Unknown,160,2013-09-01 06:00:00
11:00 AM,104.0,62.6,26,29.65,5.6,SSE,10.4,-,N/A,,Unknown,150,2013-09-01 07:00:00
12:00 PM,105.8,60.8,23,29.65,-9999.0,SSE,8.1,-,N/A,,Clear,150,2013-09-01 08:00:00
1:00 PM,107,60,14,29.62,6,SE,8.1,,,,,140,2013-09-01 09:00:00
1:00 PM,107.6,60.8,22,29.62,-9999.0,SE,8.1,-,N/A,,Clear,140,2013-09-01 09:00:00
2:00 PM,109.4,60.8,21,29.59,-9999.0,SSE,6.9,-,N/A,,Clear,150,2013-09-01 10:00:00
2:23 PM,109.4,60.8,21,29.59,-9999.0,WNW,11.5,-,N/A,,Clear,300,2013-09-01 10:23:00
3:00 PM,107.6,64.4,25,29.56,-9999.0,WNW,11.5,-,N/A,,Clear,300,2013-09-01 11:00:00
4:00 PM,104.0,71.6,35,29.56,5.6,NW,16.1,-,N/A,,Unknown,310,2013-09-01 12:00:00
5:00 PM,102.2,73.4,40,29.56,5.0,NNW,15.0,-,N/A,,Unknown,330,2013-09-01 13:00:00
6:00 PM,100.4,75.2,44,29.59,5.6,NNW,15.0,-,N/A,,Unknown,340,2013-09-01 14:00:00
7:00 PM,98.6,73.4,44,29.59,5.6,North,11.5,-,N/A,,Unknown,360,2013-09-01 15:00:00
8:00 PM,96.8,73.4,47,29.62,-9999.0,North,8.1,-,N/A,,Clear,360,2013-09-01 16:00:00
8:33 PM,96.8,75.2,50,29.65,-9999.0,ENE,11.5,-,N/A,,Clear,60,2013-09-01 16:33:00
9:00 PM,96.8,73.4,47,29.65,-9999.0,NE,8.1,-,N/A,,Clear,40,2013-09-01 17:00:00
10:00 PM,96.8,71.6,44,29.65,-9999.0,NNE,4.6,-,N/A,,Clear,30,2013-09-01 18:00:00
11:00 PM,95.0,71.6,47,29.65,-9999.0,NE,6.9,-,N/A,,Clear,50,2013-09-01 19:00:00